Simultaneous Nadir Overpasses (SNOs) Predictions

Prediction of SNOs between AQUA and GOES-15 Satellite Orbit:

Table of predicted SNOs for the next 14.0 days since TLE Epoch: 10/14/2023
Index Date Time (AQUA) AQUA Lat,Lon GOES-15 Lat,Lon Distance(km) Time Diff (sec)
1 10/15/2023 08:16:11 0.45, 84.69 -0.22, 81.69 342.94 80
2 10/15/2023 20:36:48 0.50, 79.69 0.19, 81.14 164.88 80
3 10/17/2023 20:22:08 -0.70, 83.20 0.22, 79.01 477.92 80
4 10/18/2023 08:42:54 -0.24, 78.16 -0.19, 78.45 32.96 80
5 10/20/2023 20:48:48 -0.04, 76.67 0.18, 75.76 103.83 80
6 10/21/2023 09:09:33 -0.93, 71.63 -0.16, 75.22 408.51 80
7 10/23/2023 08:54:49 0.25, 75.17 -0.17, 73.08 236.24 80
8 10/23/2023 21:15:26 0.62, 70.15 0.14, 72.52 269.10 80
9 10/25/2023 21:00:40 -0.54, 73.69 0.16, 70.39 375.76 80
10 10/26/2023 09:21:25 -0.38, 68.65 -0.13, 69.85 136.58 80
